Location: Zürich
(47.3769°N, 8.5417°E)
Time: 15:20:55
(UTC+02:00)

ISS - Visible Passes

Search period start: 24 August 2019 00:00
Search period end: 03 September 2019 00:00
Orbit: 410 x 421 km, 51.6° (Epoch: 25 August)

Date Brightness Start Highest point End Pass type
(mag) Time Alt. Az. Time Alt. Az. Time Alt. Az.
28 Aug -1.5 05:36:40 10° S 05:39:04 19° SE 05:41:30 10° E visible
29 Aug -1.1 04:49:15 10° SSE 04:50:29 12° SE 04:51:45 10° ESE visible
30 Aug -2.9 05:35:26 15° SSW 05:37:55 41° SE 05:41:06 10° ENE visible
31 Aug -2.3 04:48:40 25° SSE 04:49:13 26° SE 04:52:05 10° E visible
01 Sep -1.1 04:01:51 14° ESE 04:01:51 14° ESE 04:02:49 10° E visible
01 Sep -3.8 05:34:44 20° WSW 05:36:53 88° SSE 05:40:15 10° ENE visible
02 Sep -3.7 04:47:51 57° S 04:48:04 59° SSE 04:51:23 10° ENE visible
